FREGAT R/B (44454 NORAD) Tracking and Keplerian Element Data

This shows tracking and keplerian element data for the satellite.

Feedback or suggestion? Click here.




ElementValue
Catalog44454
NameFREGAT R/B
Epoch Orbit0
Epoch Day211.30112036
Epoch Year2019
RAAN346.6107
Inclination62.7859
Eccentricity0.7269977
Argument of Perigee269.4709
Mean Anonmoly15.0829
Mean Motion2.00050471
Decay Rate-1.518E-05
L11 44454U 19046B 19211.30112036 -.00001518 00000-0 00000+0 0 9996
L22 44454 62.7859 346.6107 7269977 269.4709 15.0829 2.00050471 05

Live tracking and technical data element details for FREGAT R/B (NORAD 44454). FREGAT R/B can be tracked NOW for your location showing map with azimuth and elevation plus other details from your city location.

Track the satellite on the map from your city or location and see movement details for azimuth, elevation, latitude, longitude, range, height, and movement on the map or in text.







IsCatalogInMostPopularTable: catalog: 44454, numindb: 13
Update: records affected: 1



GetName: 44454 FREGAT R/B

Hit Count: updated at: Tue, 22 Oct 2019 23:41:39 GMT